Overview Statistics Trail Chart Weather Telemetry Raw packets
 

This is the latest recevied weather packets stored in our database for station/object KC9DRE. If no packets are shown the sender has not sent any weather packets the latest 10 day(s).

<< 63 64 65 66 67 68 69 >>
Time Temp. Humidity Pressure Rain* Wind** Luminosity Snow
1777492941 20.56° C 58% 1012.9 hPa 0 mm - 817 W/m² -
1777492639 20.56° C 55% 1012.8 hPa 0 mm - 729 W/m² -
1777492339 20° C 60% 1012.7 hPa 0 mm - 776 W/m² -
1777492036 19.44° C 60% 1012.9 hPa 0 mm - 937 W/m² -
1777491733 19.44° C 60% 1013 hPa 0 mm - 252 W/m² -
1777491430 19.44° C 59% 1013 hPa 0 mm - 877 W/m² -
1777491127 20.56° C 58% 1012.8 hPa 0 mm - 219 W/m² -
1777490822 20.56° C 62% 1012.8 hPa 0 mm - 858 W/m² -
1777490519 20.56° C 61% 1012.5 hPa 0 mm - 898 W/m² -
1777490215 19.44° C 62% 1012.5 hPa 0 mm - 913 W/m² -
1777489913 18.33° C 65% 1012.6 hPa 0 mm - 907 W/m² -
1777489610 18.89° C 62% 1012.7 hPa 0 mm - 189 W/m² -
1777489306 19.44° C 61% 1012.7 hPa 0 mm - 269 W/m² -
1777489004 20° C 60% 1012.8 hPa 0 mm - 492 W/m² -
1777488701 19.44° C 64% 1012.6 hPa 0 mm - 680 W/m² -
1777488398 18.33° C 68% 1012.8 hPa 0 mm - 953 W/m² -
1777488097 18.33° C 68% 1012.7 hPa 0 mm - 227 W/m² -
1777487794 18.33° C 70% 1012.7 hPa 0 mm - 301 W/m² -
1777487492 18.33° C 70% 1012.7 hPa 0 mm - 275 W/m² -
1777487189 18.89° C 64% 1012.7 hPa 0 mm - 213 W/m² -
1777486884 19.44° C 63% 1012.8 hPa 0 mm - 949 W/m² -
1777486582 19.44° C 69% 1012.8 hPa 0 mm - 1079 W/m² -
1777486280 18.33° C 70% 1012.6 hPa 0 mm - 968 W/m² -
1777485977 18.33° C 70% 1012.9 hPa 0 mm - 940 W/m² -
1777485673 17.78° C 66% 1012.7 hPa 0 mm - 476 W/m² -

* Rain latest hour (hover to see other rain measurements)
** Current wind speed in m/s (hover to see current wind gust speed)